H1 CPF 2 NER 2021 4 2 9 092 01 glonass141 H2 1908801 9141 44850 2021 4 2 0 0 0 2021 4 5 23 45 0 900 1 1 0 0 0 1 H9 10 0 59306 0.00000 0 -8744839.213 -6378049.329 -23066424.258 10 0 59306 900.00000 0 -7120953.491 -8711026.716 -22861678.483 10 0 59306 1800.00000 0 -5699894.360 -11111668.011 -22211517.034 10 0 59306 2700.00000 0 -4507915.140 -13515109.322 -21128659.699 10 0 59306 3600.00000 0 -3559082.726 -15853818.496 -19634271.287 10 0 59306 4500.00000 0 -2854886.849 -18060255.226 -17757541.450 10 0 59306 5400.00000 0 -2384392.480 -20069545.140 -15535106.388 10 0 59306 6300.00000 0 -2124927.387 -21822055.686 -13010324.253 10 0 59306 7200.00000 0 -2043273.898 -23265765.785 -10232419.119 10 0 59306 8100.00000 0 -2097312.517 -24358330.129 -7255511.049 10 0 59306 9000.00000 0 -2238045.929 -25068752.046 -4137551.999 10 0 59306 9900.00000 0 -2411916.004 -25378595.524 -939189.316 10 0 59306 10800.00000 0 -2563314.182 -25282686.718 2277420.190 10 0 59306 11700.00000 0 -2637177.804 -24789276.884 5449821.812 10 0 59306 12600.00000 0 -2581561.740 -23919661.490 8516475.944 10 0 59306 13500.00000 0 -2350076.178 -22707273.083 11417948.775 10 0 59306 14400.00000 0 -1904087.543 -21196287.403 14098057.718 10 0 59306 15300.00000 0 -1214589.960 -19439802.330 16504949.782 10 0 59306 16200.00000 0 -263668.817 -17497666.617 18592092.952 10 0 59306 17100.00000 0 954504.730 -15434049.376 20319162.575 10 0 59306 18000.00000 0 2433189.746 -13314851.510 21652806.989 10 0 59306 18900.00000 0 4153122.342 -11205066.150 22567279.094 10 0 59306 19800.00000 0 6083091.807 -9166196.706 23044923.109 10 0 59306 20700.00000 0 8181022.819 -7253838.457 23076508.283 10 0 59306 21600.00000 0 10395519.994 -5515522.421 22661403.985 10 0 59306 22500.00000 0 12667812.153 -3988909.446 21807593.211 10 0 59306 23400.00000 0 14934017.292 -2700408.099 20531524.143 10 0 59306 24300.00000 0 17127636.146 -1664272.595 18857802.073 10 0 59306 25200.00000 0 19182172.536 -882217.495 16818726.590 10 0 59306 26100.00000 0 21033773.101 -343564.825 14453681.694 10 0 59306 27000.00000 0 22623777.695 -25917.399 11808389.050 10 0 59306 27900.00000 0 23901074.868 103669.617 8934037.268 10 0 59306 28800.00000 0 24824164.129 87067.641 5886302.652 10 0 59306 29700.00000 0 25362838.408 -26928.167 2724279.223 10 0 59306 30600.00000 0 25499415.345 -184899.422 -490662.128 10 0 59306 31500.00000 0 25229464.485 -331305.709 -3696063.501 10 0 59306 32400.00000 0 24561998.453 -411080.412 -6829595.772 10 0 59306 33300.00000 0 23519118.520 -372210.650 -9830276.260 10 0 59306 34200.00000 0 22135128.116 -168190.960 -12639663.773 10 0 59306 35100.00000 0 20455150.411 239754.688 -15203006.837 10 0 59306 36000.00000 0 18533307.266 880778.419 -17470321.704 10 0 59306 36900.00000 0 16430535.688 1772923.698 -19397377.974 10 0 59306 37800.00000 0 14212133.383 2922115.081 -20946571.673 10 0 59306 38700.00000 0 11945136.634 4321667.215 -22087667.937 10 0 59306 39600.00000 0 9695640.906 5952335.512 -22798398.098 10 0 59306 40500.00000 0 7526176.917 7782907.985 -23064899.102 10 0 59306 41400.00000 0 5493252.453 9771314.540 -22881986.429 10 0 59306 42300.00000 0 3645163.130 11866207.913 -22253255.053 10 0 59306 43200.00000 0 2020163.611 14008950.359 -21191006.564 10 0 59306 44100.00000 0 645075.364 16135922.892 -19716004.043 10 0 59306 45000.00000 0 -465611.552 18181060.027 -17857059.796 10 0 59306 45900.00000 0 -1310106.410 20078503.461 -15650464.456 10 0 59306 46800.00000 0 -1899141.721 21765263.040 -13139269.112 10 0 59306 47700.00000 0 -2255262.571 23183773.013 -10372435.235 10 0 59306 48600.00000 0 -2411613.524 24284236.179 -7403869.766 10 0 59306 49500.00000 0 -2410276.584 25026657.625 -4291365.041 10 0 59306 50400.00000 0 -2300232.500 25382483.022 -1095465.221 10 0 59306 51300.00000 0 -2135033.540 25335773.420 2121717.840 10 0 59306 52200.00000 0 -1970287.743 24883868.237 5297715.509 10 0 59306 53100.00000 0 -1861062.170 24037509.832 8370915.884 10 0 59306 54000.00000 0 -1859315.673 22820425.805 11281756.117 10 0 59306 54900.00000 0 -2011469.897 21268387.822 13973870.543 10 0 59306 55800.00000 0 -2356220.913 19427787.508 16395172.743 10 0 59306 56700.00000 0 -2922683.332 17353789.748 18498851.538 10 0 59306 57600.00000 0 -3728944.494 15108140.848 20244262.784 10 0 59306 58500.00000 0 -4781088.979 12756722.793 21597701.104 10 0 59306 59400.00000 0 -6072734.077 10366954.780 22533038.156 10 0 59306 60300.00000 0 -7585095.743 8005148.862 23032216.544 10 0 59306 61200.00000 0 -9287582.709 5733928.117 23085591.022 10 0 59306 62100.00000 0 -11138894.911 3609812.738 22692111.317 10 0 59306 63000.00000 0 -13088581.836 1681072.365 21859343.465 10 0 59306 63900.00000 0 -15078997.464 -14067.840 20603329.195 10 0 59306 64800.00000 0 -17047572.340 -1448794.409 18948285.533 10 0 59306 65700.00000 0 -18929310.032 -2608590.374 16926149.425 10 0 59306 66600.00000 0 -20659405.615 -3491601.526 14575974.867 10 0 59306 67500.00000 0 -22175878.405 -4108469.230 11943192.661 10 0 59306 68400.00000 0 -23422109.925 -4481636.792 9078745.522 10 0 59306 69300.00000 0 -24349181.299 -4644158.157 6038113.851 10 0 59306 70200.00000 0 -24917912.009 -4638058.643 2880249.853 10 0 59306 71100.00000 0 -25100513.740 -4512316.357 -333560.250 10 0 59306 72000.00000 0 -24881788.616 -4320549.211 -3540884.154 10 0 59306 72900.00000 0 -24259819.938 -4118505.354 -6679358.514 10 0 59306 73800.00000 0 -23246124.616 -3961463.618 -9687907.095 10 0 59306 74700.00000 0 -21865259.195 -3901654.811 -12507937.501 10 0 59306 75600.00000 0 -20153894.478 -3985814.307 -15084492.287 10 0 59306 76500.00000 0 -18159396.382 -4252971.081 -17367330.960 10 0 59306 77400.00000 0 -15937971.785 -4732568.517 -19311920.635 10 0 59306 78300.00000 0 -13552456.696 -5442998.355 -20880315.089 10 0 59306 79200.00000 0 -11069839.313 -6390611.578 -22041904.213 10 0 59306 80100.00000 0 -8558621.968 -7569249.722 -22774018.560 10 0 59306 81000.00000 0 -6086132.644 -8960317.858 -23062376.738 10 0 59306 81900.00000 0 -3715898.837 -10533397.392 -22901366.656 10 0 59306 82800.00000 0 -1505193.894 -12247373.723 -22294155.008 10 0 59306 83700.00000 0 497141.635 -14052031.819 -21252622.910 10 0 59306 84600.00000 0 2252512.862 -15890052.829 -19797129.108 10 0 59306 85500.00000 0 3733942.445 -17699327.630 -17956105.720 10 0 59307 0.00000 0 4926945.274 -19415489.802 -15765494.863 10 0 59307 900.00000 0 5829870.770 -20974561.022 -13268037.388 10 0 59307 1800.00000 0 6453700.758 -22315597.550 -10512429.137 10 0 59307 2700.00000 0 6821312.835 -23383225.334 -7552360.909 10 0 59307 3600.00000 0 6966243.688 -24129958.057 -4445462.526 10 0 59307 4500.00000 0 6931006.035 -24518199.745 -1252172.234 10 0 59307 5400.00000 0 6765032.869 -24521848.563 1965445.593 10 0 59307 6300.00000 0 6522337.642 -24127434.865 5144910.695 10 0 59307 7200.00000 0 6258990.791 -23334746.591 8224540.933 10 0 59307 8100.00000 0 6030520.283 -22156916.826 11144646.225 10 0 59307 9000.00000 0 5889346.504 -20619970.921 13848679.360 10 0 59307 9900.00000 0 5882359.807 -18761853.142 16284321.756 10 0 59307 10800.00000 0 6048742.536 -16630974.308 18404484.030 10 0 59307 11700.00000 0 6418126.630 -14284341.368 20168203.205 10 0 59307 12600.00000 0 7009163.585 -11785346.861 21541420.537 10 0 59307 13500.00000 0 7828566.201 -9201309.634 22497626.474 10 0 59307 14400.00000 0 8870661.936 -6600867.899 23018361.722 10 0 59307 15300.00000 0 10117476.540 -4051331.466 23093565.979 10 0 59307 16200.00000 0 11539344.969 -1616101.135 22721768.509 10 0 59307 17100.00000 0 13096025.010 647739.662 21910117.340 10 0 59307 18000.00000 0 14738268.449 2691562.927 20674246.514 10 0 59307 18900.00000 0 16409785.907 4476976.875 19037983.396 10 0 59307 19800.00000 0 18049525.150 5977176.921 17032900.740 10 0 59307 20700.00000 0 19594169.472 7177811.565 14697720.855 10 0 59307 21600.00000 0 20980753.292 8077327.783 12077581.854 10 0 59307 22500.00000 0 22149286.707 8686781.650 9223178.575 10 0 59307 23400.00000 0 23045279.618 9029122.010 6189793.389 10 0 59307 24300.00000 0 23622059.660 9137976.927 3036234.407 10 0 59307 25200.00000 0 23842785.980 9055993.586 -176299.210 10 0 59307 26100.00000 0 23682073.113 8832801.236 -3385403.211 10 0 59307 27000.00000 0 23127155.077 8522683.099 -6528682.481 10 0 59307 27900.00000 0 22178538.850 8182055.801 -9544969.594 10 0 59307 28800.00000 0 20850117.759 7866863.528 -12375523.159 10 0 59307 29700.00000 0 19168738.147 7629998.090 -14965181.749 10 0 59307 30600.00000 0 17173235.793 7518855.388 -17263449.877 10 0 59307 31500.00000 0 14912981.293 7573133.141 -19225493.669 10 0 59307 32400.00000 0 12445994.447 7822964.688 -20813025.907 10 0 59307 33300.00000 0 9836706.147 8287469.406 -21995062.280 10 0 59307 34200.00000 0 7153461.326 8973782.508 -22748533.387 10 0 59307 35100.00000 0 4465867.463 9876606.553 -23058740.099 10 0 59307 36000.00000 0 1842099.690 10978304.673 -22919643.104 10 0 59307 36900.00000 0 -653724.677 12249532.345 -22333980.852 10 0 59307 37800.00000 0 -2963992.405 13650381.527 -21313213.670 10 0 59307 38700.00000 0 -5039759.469 15131989.116 -19877295.276 10 0 59307 39600.00000 0 -6842544.931 16638541.770 -18054276.505 10 0 59307 40500.00000 0 -8345679.527 18109592.295 -15879749.370 10 0 59307 41400.00000 0 -9535153.849 19482589.522 -13396142.866 10 0 59307 42300.00000 0 -10409932.253 20695514.434 -10651884.979 10 0 59307 43200.00000 0 -10981721.463 21689510.964 -7700448.013 10 0 59307 44100.00000 0 -11274205.925 22411400.184 -4599296.732 10 0 59307 45000.00000 0 -11321784.514 22815971.671 -1408760.807 10 0 59307 45900.00000 0 -11167864.252 22867955.609 1809145.598 10 0 59307 46800.00000 0 -10862785.189 22543592.874 4991933.347 10 0 59307 47700.00000 0 -10461465.859 21831737.608 8077852.787 10 0 59307 48600.00000 0 -10020870.080 20734446.729 11007089.257 10 0 59307 49500.00000 0 -9597402.866 19267032.430 13722916.561 10 0 59307 50400.00000 0 -9244345.604 17457576.353 16172786.371 10 0 59307 51300.00000 0 -9009438.409 15345926.385 18309333.354 10 0 59307 52200.00000 0 -8932710.867 12982218.270 20091277.755 10 0 59307 53100.00000 0 -9044651.563 10424983.718 21484209.276 10 0 59307 54000.00000 0 -9364792.393 7738923.117 22461238.690 10 0 59307 54900.00000 0 -9900766.266 4992434.408 23003506.030 10 0 59307 55800.00000 0 -10647877.188 2254999.308 23100536.788 10 0 59307 56700.00000 0 -11589200.647 -405466.588 22750440.185 10 0 59307 57600.00000 0 -12696210.520 -2925191.941 21959946.209 10 0 59307 58500.00000 0 -13929907.166 -5246951.148 20744280.659 10 0 59307 59400.00000 0 -15242400.811 -7322191.467 19126880.166 10 0 59307 60300.00000 0 -16578885.662 -9112799.169 17138951.686 10 0 59307 61200.00000 0 -17879923.753 -10592432.408 14818883.726 10 0 59307 62100.00000 0 -19083944.533 -11747366.197 12211519.146 10 0 59307 63000.00000 0 -20129856.742 -12576814.594 9367301.962 10 0 59307 63900.00000 0 -20959663.807 -13092716.541 6341313.265 10 0 59307 64800.00000 0 -21520973.224 -13318994.134 3192213.622 10 0 59307 65700.00000 0 -21769294.058 -13290313.997 -18888.445 10 0 59307 66600.00000 0 -21670024.953 -13050403.455 -3229620.357 10 0 59307 67500.00000 0 -21200047.470 -12649992.229 -6377558.831 10 0 59307 68400.00000 0 -20348855.767 -12144466.495 -9401448.761 10 0 59307 69300.00000 0 -19119172.951 -11591334.740 -12242403.121 10 0 59307 70200.00000 0 -17527026.040 -11047613.201 -14845059.634 10 0 59307 71100.00000 0 -15601274.292 -10567242.460 -17158670.613 10 0 59307 72000.00000 0 -13382609.016 -10198645.663 -19138103.570 10 0 59307 72900.00000 0 -10922065.466 -9982532.999 -20744732.131 10 0 59307 73800.00000 0 -8279108.137 -9950046.664 -21947198.992 10 0 59307 74700.00000 0 -5519369.164 -10121325.989 -22722035.320 10 0 59307 75600.00000 0 -2712134.100 -10504554.530 -23054124.064 10 0 59307 76500.00000 0 72319.886 -11095530.227 -22936997.821 10 0 59307 77400.00000 0 2765422.021 -11877777.385 -22372965.313 10 0 59307 78300.00000 0 5302929.478 -12823196.068 -21373064.062 10 0 59307 79200.00000 0 7627363.041 -13893221.485 -19956840.305 10 0 59307 80100.00000 0 9690155.397 -15040444.180 -18151960.785 10 0 59307 81000.00000 0 11453422.910 -16210622.153 -15993664.387 10 0 59307 81900.00000 0 12891287.849 -17344999.329 -13524064.865 10 0 59307 82800.00000 0 13990697.025 -18382831.763 -10791318.957 10 0 59307 83700.00000 0 14751704.421 -19264014.194 -7848676.954 10 0 59307 84600.00000 0 15187208.060 -19931695.422 -4753435.023 10 0 59307 85500.00000 0 15322154.524 -20334771.602 -1565810.786 10 0 59308 0.00000 0 15192247.013 -20430152.083 1652235.051 10 0 59308 900.00000 0 14842213.728 -20184701.833 4838207.683 10 0 59308 1800.00000 0 14323711.498 -19576780.058 7930292.638 10 0 59308 2700.00000 0 13692954.944 -18597308.747 10868553.030 10 0 59308 3600.00000 0 13008172.000 -17250328.980 13596085.597 10 0 59308 4500.00000 0 12326993.830 -15553020.859 16060113.708 10 0 59308 5400.00000 0 11703888.991 -13535187.415 18212997.060 10 0 59308 6300.00000 0 11187749.353 -11238224.126 20013139.621 10 0 59308 7200.00000 0 10819728.410 -8713617.103 21425779.609 10 0 59308 8100.00000 0 10631421.645 -6021031.924 22423647.780 10 0 59308 9000.00000 0 10643464.200 -3226071.610 22987482.783 10 0 59308 9900.00000 0 10864603.648 -397795.483 23106394.867 10 0 59308 10800.00000 0 11291286.072 2393899.991 22778071.910 10 0 59308 11700.00000 0 11907772.601 5080931.843 22008824.323 10 0 59308 12600.00000 0 12686781.813 7599604.885 20813467.964 10 0 59308 13500.00000 0 13590631.915 9893004.950 19215046.886 10 0 59308 14400.00000 0 14572836.069 11913113.593 17244400.306 10 0 59308 15300.00000 0 15580085.433 13622557.724 14939580.903 10 0 59308 16200.00000 0 16554538.273 14995922.361 12345134.171 10 0 59308 17100.00000 0 17436320.397 16020572.332 9511251.112 10 0 59308 18000.00000 0 18166132.888 16696948.549 6492809.259 10 0 59308 18900.00000 0 18687857.945 17038326.278 3348319.291 10 0 59308 19800.00000 0 18951053.094 17070045.017 138796.698 10 0 59308 20700.00000 0 18913227.990 16828241.785 -3073420.008 10 0 59308 21600.00000 0 18541806.550 16358140.695 -6225881.704 10 0 59308 22500.00000 0 17815689.954 15711970.647 -9257247.814 10 0 59308 23400.00000 0 16726352.502 14946599.023 -12108487.697 10 0 59308 24300.00000 0 15278421.892 14120981.693 -14724040.015 10 0 59308 25200.00000 0 13489717.178 13293537.738 -17052906.427 10 0 59308 26100.00000 0 11390740.759 12519560.786 -19049657.124 10 0 59308 27000.00000 0 9023643.923 11848777.432 -20675327.635 10 0 59308 27900.00000 0 6440707.868 11323157.089 -21898188.510 10 0 59308 28800.00000 0 3702402.934 10975066.879 -22694372.132 10 0 59308 29700.00000 0 875106.600 10825850.418 -23048343.955 10 0 59308 30600.00000 0 -1971424.689 10884891.225 -22953208.657 10 0 59308 31500.00000 0 -4766724.198 11149200.688 -22410845.107 10 0 59308 32400.00000 0 -7442312.691 11603548.089 -21431867.532 10 0 59308 33300.00000 0 -9934312.669 12221127.001 -20035413.804 10 0 59308 34200.00000 0 -12185869.950 12964729.424 -18248765.298 10 0 59308 35100.00000 0 -14149281.817 13788377.365 -16106806.126 10 0 59308 36000.00000 0 -15787743.479 14639342.056 -13651332.833 10 0 59308 36900.00000 0 -17076640.747 15460464.493 -10930228.720 10 0 59308 37800.00000 0 -18004336.289 16192678.235 -7996519.703 10 0 59308 38700.00000 0 -18572418.311 16777626.907 -4907330.915 10 0 59308 39600.00000 0 -18795403.280 17160264.996 -1722765.457 10 0 59308 40500.00000 0 -18699907.528 17291331.506 1495272.035 10 0 59308 41400.00000 0 -18323324.850 17129591.713 4684283.283 10 0 59308 42300.00000 0 -17712067.957 16643752.437 7782391.523 10 0 59308 43200.00000 0 -16919449.682 15813970.335 10729540.039 10 0 59308 44100.00000 0 -16003294.587 14632890.150 13468650.806 10 0 59308 45000.00000 0 -15023382.376 13106169.803 15946721.119 10 0 59308 45900.00000 0 -14038830.959 11252470.771 18115837.795 10 0 59308 46800.00000 0 -13105528.864 9102914.373 19934090.451 10 0 59308 47700.00000 0 -12273724.064 6700026.690 21366367.531 10 0 59308 48600.00000 0 -11585869.217 4096215.660 22385021.233 10 0 59308 49500.00000 0 -11074812.310 1351842.760 22970389.984 10 0 59308 50400.00000 0 -10762407.188 -1467031.828 23111169.626 10 0 59308 51300.00000 0 -10658600.996 -4291138.790 22804627.177 10 0 59308 52200.00000 0 -10761035.950 -7050622.765 22056653.572 10 0 59308 53100.00000 0 -11055181.813 -9677692.250 20881654.419 10 0 59308 54000.00000 0 -11514993.707 -12109188.609 19302280.463 10 0 59308 54900.00000 0 -12104068.366 -14288969.495 17349002.024 10 0 59308 55800.00000 0 -12777251.410 -16170009.187 15059534.380 10 0 59308 56700.00000 0 -13482629.403 -17716129.616 12478123.687 10 0 59308 57600.00000 0 -14163824.278 -18903290.598 9654705.623 10 0 59308 58500.00000 0 -14762494.706 -19720385.469 6643951.546 10 0 59308 59400.00000 0 -15220939.773 -20169508.639 3504219.379 10 0 59308 60300.00000 0 -15484695.430 -20265683.256 296428.523 10 0 59308 61200.00000 0 -15505013.797 -20036059.701 -2917119.791 10 0 59308 62100.00000 0 -15241119.702 -19518617.913 -6073953.929 10 0 59308 63000.00000 0 -14662147.636 -18760427.674 -9112651.236 10 0 59308 63900.00000 0 -13748675.407 -17815539.860 -11974040.853 10 0 59308 64800.00000 0 -12493787.529 -16742597.681 -14602365.699 10 0 59308 65700.00000 0 -10903621.131 -15602269.061 -16946379.918 10 0 59308 66600.00000 0 -8997369.101 -14454609.219 -18960359.227 10 0 59308 67500.00000 0 -6806738.225 -13356465.615 -20605003.484 10 0 59308 68400.00000 0 -4374883.265 -12359035.709 -21848212.995 10 0 59308 69300.00000 0 -1754860.334 -11505681.560 -22665722.644 10 0 59308 70200.00000 0 992336.636 -10830094.191 -23041581.020 10 0 59308 71100.00000 0 3800074.869 -10354885.726 -22968464.861 10 0 59308 72000.00000 0 6598621.221 -10090668.926 -22447822.523 10 0 59308 72900.00000 0 9317814.263 -10035662.902 -21489843.724 10 0 59308 73800.00000 0 11889758.360 -10175841.214 -20113256.254 10 0 59308 74700.00000 0 14251427.103 -10485615.416 -18344953.951 10 0 59308 75600.00000 0 16347067.524 -10929024.215 -16219463.573 10 0 59308 76500.00000 0 18130304.944 -11461376.859 -13778261.503 10 0 59308 77400.00000 0 19565860.994 -12031280.011 -11068954.316 10 0 59308 78300.00000 0 20630813.980 -12582961.122 -8144339.966 10 0 59308 79200.00000 0 21315350.178 -13058788.786 -5061368.755 10 0 59308 80100.00000 0 21622976.268 -13401882.409 -1880025.340 10 0 59308 81000.00000 0 21570186.039 -13558699.935 1337845.545 10 0 59308 81900.00000 0 21185597.533 -13481493.667 4529746.025 10 0 59308 82800.00000 0 20508599.023 -13130530.158 7633740.461 10 0 59308 83700.00000 0 19587562.746 -12475980.490 10589655.348 10 0 59308 84600.00000 0 18477703.074 -11499401.502 13340240.470 10 0 59308 85500.00000 0 17238670.305 -10194746.037 15832269.061 10 0 59309 0.00000 0 15931981.683 -8568860.229 18017556.473 10 0 59309 900.00000 0 14618397.554 -6641446.758 19853878.952 10 0 59309 1800.00000 0 13355351.600 -4444496.938 21305775.522 10 0 59309 2700.00000 0 12194542.772 -2021213.057 22345219.722 10 0 59309 3600.00000 0 11179787.001 575533.157 22952149.237 10 0 59309 4500.00000 0 10345218.052 3285144.026 23114844.606 10 0 59309 5400.00000 0 9713910.754 6041561.895 22830150.743 10 0 59309 6300.00000 0 9296983.029 8775765.657 22103537.572 10 0 59309 7200.00000 0 9093213.400 11418396.265 20948998.672 10 0 59309 8100.00000 0 9089189.548 13902404.531 19388789.493 10 0 59309 9000.00000 0 9259981.778 16165613.338 17453009.304 10 0 59309 9900.00000 0 9570313.727 18153089.413 15179033.686 10 0 59309 10800.00000 0 9976182.022 19819227.313 12610807.058 10 0 59309 11700.00000 0 10426857.872 21129459.541 9798007.255 10 0 59309 12600.00000 0 10867187.384 22061521.579 6795096.872 10 0 59309 13500.00000 0 11240094.453 22606218.714 3660278.413 10 0 59309 14400.00000 0 11489181.073 22767661.928 454372.496 10 0 59309 15300.00000 0 11561315.147 22562962.032 -2760359.590 10 0 59309 16200.00000 0 11409095.824 22021394.022 -5921426.272 10 0 59309 17100.00000 0 10993090.892 21183065.945 -8967325.219 10 0 59309 18000.00000 0 10283749.976 20097147.701 -11838747.533 10 0 59309 18900.00000 0 9262910.581 18819734.114 -14479742.301 10 0 59309 19800.00000 0 7924831.070 17411432.326 -16838817.771 10 0 59309 20700.00000 0 6276704.657 15934775.602 -18869956.507 10 0 59309 21600.00000 0 4338630.447 14451573.125 -20533523.757 10 0 59309 22500.00000 0 2143040.679 13020308.222 -21797050.373 10 0 59309 23400.00000 0 -266393.409 11693695.403 -22635874.291 10 0 59309 24300.00000 0 -2836332.571 10516499.814 -23033627.520 10 0 59309 25200.00000 0 -5505752.498 9523711.365 -22982558.848 10 0 59309 26100.00000 0 -8208256.207 8739150.638 -22483685.776 10 0 59309 27000.00000 0 -10874619.448 8174565.124 -21546772.776 10 0 59309 27900.00000 0 -13435462.760 7829253.301 -20190136.413 10 0 59309 28800.00000 0 -15823938.387 7690231.571 -18440281.438 10 0 59309 29700.00000 0 -17978319.679 7732935.814 -16331375.349 10 0 59309 30600.00000 0 -19844384.830 7922426.521 -13904572.176 10 0 59309 31500.00000 0 -21377495.436 8215045.082 -11207199.368 10 0 59309 32400.00000 0 -22544283.494 8560449.560 -8291824.423 10 0 59309 33300.00000 0 -23323877.156 8903942.308 -5215220.277 10 0 59309 34200.00000 0 -23708615.090 9188989.530 -2037250.636 10 0 59309 35100.00000 0 -23704221.166 9359824.974 1180302.143 10 0 59309 36000.00000 0 -23329434.007 9364026.705 4374943.002 10 0 59309 36900.00000 0 -22615108.920 9154957.455 7484679.781 10 0 59309 37800.00000 0 -21602831.860 8693965.219 10449224.486 10 0 59309 38700.00000 0 -20343105.297 7952251.280 13211156.922 10 0 59309 39600.00000 0 -18893183.465 6912327.252 15717028.373 10 0 59309 40500.00000 0 -17314648.563 5569000.201 17918384.752 10 0 59309 41400.00000 0 -15670829.692 3929844.779 19772690.525 10 0 59309 42300.00000 0 -14024172.241 2015142.754 21244136.848 10 0 59309 43200.00000 0 -12433666.788 -142707.758 22304319.816 10 0 59309 44100.00000 0 -10952443.609 -2500289.345 22932777.253 10 0 59309 45000.00000 0 -9625631.651 -5004723.907 23117374.942 10 0 59309 45900.00000 0 -8488569.581 -7595629.532 22854535.930 10 0 59309 46800.00000 0 -7565441.985 -10207396.174 22149309.038 10 0 59309 47700.00000 0 -6868396.312 -12771687.664 21015275.411 10 0 59309 48600.00000 0 -6397176.513 -15220068.332 19474294.489 10 0 59309 49500.00000 0 -6139288.207 -17486647.260 17556093.465 10 0 59309 50400.00000 0 -6070688.510 -19510631.954 15297706.900 10 0 59309 51300.00000 0 -6156971.979 -21238686.606 12742775.852 10 0 59309 52200.00000 0 -6355003.601 -22626997.542 9940718.420 10 0 59309 53100.00000 0 -6614930.959 -23642959.904 6945786.297 10 0 59309 54000.00000 0 -6882491.554 -24266414.884 3816024.220 10 0 59309 54900.00000 0 -7101518.454 -24490384.997 612151.487 10 0 59309 55800.00000 0 -7216538.551 -24321275.555 -2603613.268 10 0 59309 56700.00000 0 -7175353.206 -23778532.728 -5768761.401 10 0 59309 57600.00000 0 -6931491.185 -22893771.437 -8821713.904 10 0 59309 58500.00000 0 -6446428.720 -21709408.790 -11703026.932 10 0 59309 59400.00000 0 -5691480.936 -20276859.869 -14356558.861 10 0 59309 60300.00000 0 -4649282.499 -18654371.506 -16730575.109 10 0 59309 61200.00000 0 -3314792.697 -16904585.229 -18778767.990 10 0 59309 62100.00000 0 -1695780.213 -15091932.280 -20461170.746 10 0 59309 63000.00000 0 187235.024 -13279970.811 -21744947.004 10 0 59309 63900.00000 0 2301582.303 -11528777.907 -22605039.477 10 0 59309 64800.00000 0 4603559.272 -9892506.676 -23024664.791 10 0 59309 65700.00000 0 7040023.991 -8417211.490 -22995644.414 10 0 59309 66600.00000 0 9550393.864 -7139033.000 -22518565.071 10 0 59309 67500.00000 0 12068968.187 -6082819.033 -21602765.550 10 0 59309 68400.00000 0 14527477.255 -5261238.791 -20266150.256 10 0 59309 69300.00000 0 16857751.203 -4674426.727 -18534833.448 10 0 59309 70200.00000 0 18994396.778 -4310169.779 -16442621.497 10 0 59309 71100.00000 0 20877369.886 -4144628.465 -14030343.749 10 0 59309 72000.00000 0 22454336.132 -4143559.665 -11345045.748 10 0 59309 72900.00000 0 23682720.711 -4263987.535 -8439061.335 10 0 59309 73800.00000 0 24531362.298 -4456250.008 -5368982.509 10 0 59309 74700.00000 0 24981702.392 -4666332.634 -2194548.205 10 0 59309 75600.00000 0 25028461.475 -4838389.417 1022525.544 10 0 59309 76500.00000 0 24679775.117 -4917342.761 4219750.428 10 0 59309 77400.00000 0 23956785.983 -4851451.707 7335081.522 10 0 59309 78300.00000 0 22892710.636 -4594739.367 10308119.794 10 0 59309 79200.00000 0 21531421.890 -4109176.912 13081278.111 10 0 59309 80100.00000 0 19925607.536 -3366532.164 15600888.358 10 0 59309 81000.00000 0 18134583.503 -2349805.271 17818229.018 10 0 59309 81900.00000 0 16221853.345 -1054191.449 19690454.387 10 0 59309 82800.00000 0 14252515.983 512469.267 21181408.753 10 0 59309 83700.00000 0 12290629.168 2329774.152 22262311.325 10 0 59309 84600.00000 0 10396637.405 4365368.710 22912300.186 10 0 59309 85500.00000 0 8624970.024 6576061.655 23118826.068 99